Location: Unspecified
(58.7730°N, 5.8460°E)
Time: 13:07:49
(UTC+01:00)

Cosmos 1674 - Visible Passes

Search period start: 22 December 2014 00:00
Search period end: 01 January 2015 00:00
Orbit: 510 x 538 km, 82.5° (Epoch: 22 December)

Date Brightness Start Highest point End Pass type
(mag) Time Alt. Az. Time Alt. Az. Time Alt. Az.
22 Dec 5.4 07:02:46 10° NNE 07:05:00 15° NE 07:07:13 10° E visible
23 Dec 5.5 06:50:37 10° NNE 06:52:39 14° NE 06:54:41 10° E visible
23 Dec 3.0 08:25:25 10° N 08:29:18 72° ENE 08:33:10 10° SSE visible
24 Dec 5.5 06:38:27 10° NNE 06:40:16 13° NE 06:42:05 10° E visible
24 Dec 3.1 08:13:07 10° N 08:16:59 66° ENE 08:20:50 10° SSE visible
25 Dec 5.6 06:26:19 10° NNE 06:27:52 12° NE 06:29:26 10° ENE visible
25 Dec 3.3 08:00:47 10° N 08:04:38 60° ENE 08:08:29 10° SSE visible
26 Dec 5.7 06:14:12 10° NNE 06:15:27 11° NE 06:16:42 10° ENE visible
26 Dec 3.4 07:48:27 10° N 07:52:16 55° ENE 07:56:05 10° SSE visible
27 Dec 5.8 06:02:12 10° NE 06:03:00 11° NE 06:03:48 10° ENE visible
27 Dec 3.6 07:36:05 10° N 07:39:53 50° ENE 07:43:40 10° SSE visible
28 Dec 3.8 07:23:42 10° N 07:27:28 46° ENE 07:31:14 10° SE visible
29 Dec 3.9 07:11:18 10° N 07:15:02 42° ENE 07:18:45 10° SE visible
30 Dec 4.1 06:58:54 10° N 07:02:34 38° ENE 07:06:14 10° SE visible
30 Dec 3.6 08:34:57 10° NNW 08:38:24 31° W 08:41:51 10° SSW visible
31 Dec 4.2 06:46:28 10° N 06:50:05 35° ENE 06:53:42 10° SE visible
31 Dec 3.5 08:22:26 10° NNW 08:25:58 33° W 08:29:30 10° SSW visible
